Change the Weather History Date:

Friday, January 24, 2014

  Actual Average Record
Temperature  
Mean Temperature 36 °F -  
Max Temperature 38 °F 4 °F 38 °F (2014)
Min Temperature 32 °F -3 °F -27 °F (2002)
Degree Days  
Heating Degree Days 30    
Moisture  
Dew Point 34 °F    
Average Humidity 95    
Maximum Humidity 100    
Minimum Humidity 75    
Precipitation  
Precipitation 0.19 in - - ()
Sea Level Pressure  
Sea Level Pressure 29.82 in    
Wind  
Wind Speed 5 mph (SW)    
Max Wind Speed 10 mph    
Max Gust Speed 16 mph    
Visibility 8 miles    
Events Fog , Rain    
Averages and records for this station are not official NWS values.
T = Trace of Precipitation, MM = Missing Value Source: NWS Daily Summary

Daily Weather History Graph

Daily Weather History Graph

Search for Another Location

Airport or City:

Trip Planner

Search our weather history database for the weather conditions in past years. The results will help you decide how hot, cold, wet, or windy it might be!

Date:

Astronomy

Jan. 24, 2014 Rise Set
Actual Time 10:15 AM AKST 4:57 PM AKST
Civil Twilight 9:18 AM AKST 5:54 PM AKST
Nautical Twilight 8:20 AM AKST 6:52 PM AKST
Astronomical Twilight 7:26 AM AKST 7:46 PM AKST
Moon 3:28 AM AKST (1/24) 11:43 AM AKST (1/24)
Length of Visible Light 8h 35m
Length of Day
6h 41m
Last Quarter, 43% of the Moon is Illuminated
Jan 24
Last Quarter
Jan 30
New
Feb 6
First Quarter
Feb 14
Full
Feb 22
Last Quarter

Hourly Weather History & Observations

Time (AKST) Temp. Windchill Dew Point Humidity Pressure Visibility Wind Dir Wind Speed Gust Speed Precip Events Conditions
12:44 AM 39.2 °F 33.6 °F 32.0 °F 75% 29.57 in 10.0 mi ENE 8.1 mph - N/A Rain Light Rain
12:55 AM 37.9 °F 33.5 °F 33.3 °F 83% 29.57 in 10.0 mi ENE 5.8 mph 12.7 mph 0.00 in Rain Light Rain
1:55 AM 36.3 °F 31.6 °F 34.5 °F 93% 29.56 in 10.0 mi ESE 5.8 mph - 0.04 in Rain Light Rain
2:14 AM 37.4 °F 33.8 °F 35.6 °F 93% 29.56 in 7.0 mi East 4.6 mph - N/A Rain Rain
3:55 AM 37.4 °F 32.1 °F 37.0 °F 99% 29.55 in 6.0 mi ENE 6.9 mph - 0.09 in Rain Rain
4:55 AM 38.5 °F 33.4 °F 38.1 °F 99% 29.54 in 10.0 mi ENE 6.9 mph - 0.06 in Rain Light Rain
5:29 AM 37.4 °F 34.9 °F 37.4 °F 100% 29.55 in 10.0 mi ESE 3.5 mph - N/A Rain Light Rain
5:44 AM 33.8 °F 26.4 °F 33.8 °F 100% 29.57 in 0.5 mi SW 9.2 mph - N/A Fog Fog
5:55 AM 33.6 °F 29.4 °F 33.8 °F 100% 29.58 in 0.5 mi West 4.6 mph - N/A Fog Fog
6:55 AM 32.5 °F 27.1 °F 32.9 °F 100% 29.60 in 0.5 mi WSW 5.8 mph - N/A Fog Fog
7:55 AM 32.5 °F 29.3 °F 32.9 °F 100% 29.63 in 0.5 mi WSW 3.5 mph - N/A Fog Fog
8:29 AM 32.0 °F 26.4 °F 32.0 °F 100% 29.65 in 1.8 mi SW 5.8 mph - N/A   Mostly Cloudy
8:44 AM 32.0 °F 27.5 °F 32.0 °F 100% 29.65 in 0.5 mi West 4.6 mph - N/A Fog Fog
8:55 AM 33.3 °F 27.9 °F 33.8 °F 100% 29.65 in 3.0 mi Variable 5.8 mph - N/A   Mostly Cloudy
9:14 AM 33.8 °F 27.7 °F 33.8 °F 100% 29.67 in 10.0 mi West 6.9 mph - N/A   Partly Cloudy
9:44 AM 35.6 °F 32.8 °F 35.6 °F 100% 29.70 in 10.0 mi Variable 3.5 mph - N/A   Mostly Cloudy
9:55 AM 36.1 °F 30.6 °F 36.0 °F 99% 29.71 in 10.0 mi WSW 6.9 mph - N/A   Mostly Cloudy
10:29 AM 35.6 °F 31.7 °F 35.6 °F 100% 29.74 in 10.0 mi WSW 4.6 mph - N/A   Mostly Cloudy
10:44 AM 35.6 °F 32.8 °F 35.6 °F 100% 29.75 in 10.0 mi Variable 3.5 mph - N/A   Scattered Clouds
10:55 AM 35.1 °F - 34.7 °F 99% 29.76 in 10.0 mi Variable 2.3 mph - N/A   Mostly Cloudy
11:14 AM 35.6 °F 32.8 °F 33.8 °F 93% 29.78 in 10.0 mi WSW 3.5 mph - N/A   Mostly Cloudy
11:44 AM 33.8 °F 29.6 °F 33.8 °F 100% 29.81 in 10.0 mi West 4.6 mph - N/A   Mostly Cloudy
11:55 AM 34.5 °F 31.6 °F 34.7 °F 100% 29.81 in 10.0 mi West 3.5 mph - N/A   Mostly Cloudy
12:44 PM 35.6 °F 31.7 °F 35.6 °F 100% 29.84 in 10.0 mi WSW 4.6 mph - N/A Rain Light Rain
12:55 PM 35.4 °F 31.5 °F 35.4 °F 100% 29.85 in 10.0 mi WSW 4.6 mph - 0.00 in Rain Light Rain
1:14 PM 35.6 °F 29.2 °F 35.6 °F 100% 29.87 in 10.0 mi SW 8.1 mph 16.1 mph N/A   Overcast
1:29 PM 35.6 °F 28.6 °F 35.6 °F 100% 29.88 in 10.0 mi SSW 9.2 mph - N/A   Overcast
1:44 PM 35.6 °F 31.7 °F 35.6 °F 100% 29.88 in 10.0 mi SSW 4.6 mph - N/A   Mostly Cloudy
1:55 PM 36.0 °F 32.1 °F 35.6 °F 99% 29.88 in 10.0 mi West 4.6 mph - N/A   Mostly Cloudy
1:59 PM 35.6 °F 28.0 °F 35.6 °F 100% 29.89 in 10.0 mi WSW 10.4 mph 15.0 mph N/A   Mostly Cloudy
2:55 PM 37.2 °F 30.6 °F 34.5 °F 90% 29.91 in 10.0 mi WSW 9.2 mph - N/A   Mostly Cloudy
3:55 PM 36.7 °F 32.9 °F 33.8 °F 89% 29.94 in 10.0 mi SW 4.6 mph - N/A   Scattered Clouds
4:55 PM 36.0 °F 33.3 °F 34.2 °F 93% 29.96 in 10.0 mi NW 3.5 mph - N/A   Mostly Cloudy
5:55 PM 34.9 °F - 34.2 °F 97% 29.99 in 10.0 mi East 2.3 mph - N/A   Mostly Cloudy
6:44 PM 35.6 °F - 33.8 °F 93% 30.02 in 10.0 mi Variable 2.3 mph - N/A   Mostly Cloudy
6:55 PM 36.5 °F 32.7 °F 34.0 °F 91% 30.03 in 10.0 mi SSW 4.6 mph - N/A   Mostly Cloudy
7:55 PM 36.7 °F - 34.0 °F 90% 30.06 in 10.0 mi East 1.2 mph - N/A   Mostly Cloudy
8:55 PM 36.5 °F - 33.3 °F 88% 30.09 in 10.0 mi South 1.2 mph - N/A   Mostly Cloudy
9:29 PM 35.6 °F - 33.8 °F 93% 30.09 in 10.0 mi Variable 2.3 mph - N/A   Mostly Cloudy
9:55 PM 36.3 °F - 32.9 °F 87% 30.10 in 10.0 mi Variable 2.3 mph - N/A   Mostly Cloudy
10:14 PM 35.6 °F - 32.0 °F 87% 30.10 in 10.0 mi Variable 2.3 mph - N/A   Scattered Clouds
10:29 PM 35.6 °F - 32.0 °F 87% 30.11 in 10.0 mi Variable 1.2 mph - N/A   Mostly Cloudy
10:44 PM 37.4 °F - 32.0 °F 81% 30.11 in 10.0 mi South 2.3 mph - N/A   Scattered Clouds
10:55 PM 36.7 °F - 32.4 °F 84% 30.11 in 10.0 mi Variable 2.3 mph - N/A   Partly Cloudy
11:55 PM 36.1 °F 33.5 °F 32.2 °F 86% 30.12 in 10.0 mi NW 3.5 mph - N/A   Clear